Location: Unspecified
(48.2082°N, 0.0000°E)
Time: 02:27:55
(UTC+00:00)

A-11 Canister half - Pass Details

Date: 23 June 2019
Orbit: 1515 x 1685 km, 47.2° (Epoch: 15 July)

Event Time Altitude Azimuth Distance (km) Brightness Sun altitude
Rises 17:18:46 0° 290° (WNW) 4,776 12.9 24.3°
Reaches altitude 10° 17:22:26 10° 280° (W) 3,763 13.1 23.7°
Maximum altitude 17:29:58 28° 226° (SW) 2,583 10.9 22.5°
Drops below altitude 10° 17:37:21 10° 173° (S) 3,674 10.9 21.3°
Sets 17:40:55 0° 162° (SSE) 4,645 11.2 20.7°
